GW4444 Weather Reports


Display with metric or nautical units.
time (UTC)temp
F
wind
direction
speed
MPH
gust
MPH
rain 1hr
in
rain 24hr
in
rain mn
in
humidity
%
barometer
mb
20240305040218 51 311 5.0 9.0 0.00 0.00 0.00 28 1012.1
20240305035725 51 310 5.0 11.0 0.00 0.00 0.00 27 1012.0
20240305035232 52 316 7.0 11.0 0.00 0.00 0.00 27 1011.8
20240305034720 52 321 8.0 10.0 0.00 0.00 0.00 27 1011.8
20240305034226 52 330 7.0 9.0 0.00 0.00 0.00 27 1011.7
20240305033733 52 307 6.0 8.0 0.00 0.00 0.00 26 1011.7
20240305033218 52 296 5.0 8.0 0.00 0.00 0.00 26 1011.6
20240305032746 52 293 3.0 9.0 0.00 0.00 0.00 25 1011.6
20240305032230 52 310 5.0 10.0 0.00 0.00 0.00 25 1011.3
20240305031757 53 315 7.0 13.0 0.00 0.00 0.00 25 1011.2
20240305031220 54 313 10.0 15.0 0.00 0.00 0.00 24 1011.1
20240305030725 54 330 12.0 15.0 0.00 0.00 0.00 24 1011.1
20240305030218 54 333 12.0 16.0 0.00 0.00 0.00 24 1011.0
20240305025723 55 331 11.0 16.0 0.00 0.00 0.00 23 1011.0
20240305025226 55 343 11.0 17.0 0.00 0.00 0.00 23 1011.0
20240305024735 55 327 12.0 17.0 0.00 0.00 0.00 23 1010.9
20240305024219 55 342 13.0 18.0 0.00 0.00 0.00 22 1010.8
20240305023726 56 330 13.0 21.0 0.00 0.00 0.00 22 1010.8
20240305023233 56 352 15.0 21.0 0.00 0.00 0.00 22 1010.8
20240305022720 56 344 14.0 19.0 0.00 0.00 0.00 21 1010.7
20240305022227 56 352 13.0 19.0 0.00 0.00 0.00 21 1010.6
20240305021736 56 351 14.0 19.0 0.00 0.00 0.00 21 1010.5
20240305021222 56 338 14.0 19.0 0.00 0.00 0.00 21 1010.6
20240305020748 57 345 15.0 21.0 0.00 0.00 0.00 20 1010.4
20240305020236 57 340 15.0 21.0 0.00 0.00 0.00 20 1010.4
20240305015725 57 336 14.0 19.0 0.00 0.00 0.00 20 1010.4
20240305015252 58 344 15.0 19.0 0.00 0.00 0.00 19 1010.3
20240305014719 58 347 14.0 18.0 0.00 0.00 0.00 19 1010.3
20240305014246 58 346 14.0 18.0 0.00 0.00 0.00 18 1010.3
20240305013728 58 350 12.0 18.0 0.00 0.00 0.00 18 1010.2
20240305013217 59 337 13.0 18.0 0.00 0.00 0.00 18 1010.3
20240305012722 59 331 12.0 17.0 0.00 0.00 0.00 18 1010.3
20240305012228 59 334 11.0 15.0 0.00 0.00 0.00 17 1010.4
20240305011720 60 333 11.0 14.0 0.00 0.00 0.00 17 1010.4
20240305011225 60 330 11.0 14.0 0.00 0.00 0.00 17 1010.3
20240305010730 61 332 9.0 14.0 0.00 0.00 0.00 17 1010.2
20240305010218 61 334 10.0 14.0 0.00 0.00 0.00 17 1010.2
20240305005743 62 334 10.0 14.0 0.00 0.00 0.00 16 1010.2
20240305005229 62 357 8.0 12.0 0.00 0.00 0.00 16 1010.1
20240305004757 63 335 9.0 15.0 0.00 0.00 0.00 16 1010.0
20240305004222 63 340 11.0 18.0 0.00 0.00 0.00 16 1009.9
20240305003728 63 325 12.0 18.0 0.00 0.00 0.00 15 1009.9
20240305003235 63 341 12.0 18.0 0.00 0.00 0.00 15 1009.8
20240305002720 64 314 12.0 17.0 0.00 0.00 0.00 15 1009.7
20240305002225 64 329 13.0 17.0 0.00 0.00 0.00 15 1009.5
20240305001732 64 345 13.0 18.0 0.00 0.00 0.00 15 1009.6
20240305001216 64 348 14.0 19.0 0.00 0.00 0.00 15 1009.6
20240305000722 64 332 15.0 20.0 0.00 0.00 0.00 15 1009.5
20240305000233 64 327 14.0 20.0 0.00 0.00 0.00 15 1009.5
20240304235717 65 333 13.0 23.0 0.00 0.00 0.00 15 1009.5
20240304235227 64 337 18.0 24.0 0.00 0.00 0.00 15 1009.3
20240304234734 64 327 16.0 25.0 0.00 0.00 0.00 15 1009.2
20240304234219 64 321 16.0 25.0 0.00 0.00 0.00 15 1009.2
20240304233747 64 333 17.0 22.0 0.00 0.00 0.00 15 1009.4
20240304233233 64 343 15.0 23.0 0.00 0.00 0.00 15 1009.4
20240304232720 65 315 17.0 24.0 0.00 0.00 0.00 15 1009.1
20240304232226 65 354 14.0 20.0 0.00 0.00 0.00 15 1009.2
20240304231733 65 334 15.0 25.0 0.00 0.00 0.00 15 1009.2
20240304231218 65 319 19.0 25.0 0.00 0.00 0.00 15 1009.1
20240304230727 65 323 15.0 25.0 0.00 0.00 0.00 15 1009.1
20240304230236 65 334 17.0 27.0 0.00 0.00 0.00 15 1009.0
20240304225721 65 322 20.0 26.0 0.00 0.00 0.00 15 1008.9
20240304225227 65 328 21.0 27.0 0.00 0.00 0.00 14 1008.9
20240304224756 65 330 18.0 26.0 0.00 0.00 0.00 15 1008.9
20240304224219 66 321 17.0 26.0 0.00 0.00 0.00 15 1008.8
20240304223725 65 332 18.0 26.0 0.00 0.00 0.00 15 1008.9
20240304223233 65 309 17.0 29.0 0.00 0.00 0.00 15 1008.8
20240304222740 66 327 21.0 32.0 0.00 0.00 0.00 14 1008.7
20240304222227 66 337 20.0 32.0 0.00 0.00 0.00 15 1008.5
20240304221718 66 328 19.0 25.0 0.00 0.00 0.00 15 1008.6
20240304221224 66 9 17.0 25.0 0.00 0.00 0.00 15 1008.7
20240304220731 66 338 16.0 31.0 0.00 0.00 0.00 15 1008.6
20240304220241 66 335 17.0 31.0 0.00 0.00 0.00 15 1008.6
20240304215727 66 344 16.0 23.0 0.00 0.00 0.00 15 1008.5
20240304215232 65 312 18.0 23.0 0.00 0.00 0.00 15 1008.6
20240304214720 66 312 9.0 30.0 0.00 0.00 0.00 17 1008.8
20240304214247 66 317 21.0 30.0 0.00 0.00 0.00 17 1008.7
20240304213732 67 339 16.0 28.0 0.00 0.00 0.00 16 1008.7
20240304213222 66 301 17.0 28.0 0.00 0.00 0.00 16 1008.5
20240304212728 66 333 18.0 24.0 0.00 0.00 0.00 16 1008.8
20240304212234 66 291 17.0 24.0 0.00 0.00 0.00 17 1008.7
20240304211722 66 317 18.0 25.0 0.00 0.00 0.00 17 1008.9
20240304211248 65 334 11.0 19.0 0.00 0.00 0.00 17 1009.0
20240304210733 65 325 9.0 24.0 0.00 0.00 0.00 17 1009.0
20240304210241 65 323 14.0 30.0 0.00 0.00 0.00 17 1009.0
20240304205725 66 312 20.0 37.0 0.00 0.00 0.00 17 1009.0
20240304205252 66 315 19.0 37.0 0.00 0.00 0.00 18 1008.7
20240304204741 65 311 12.0 27.0 0.00 0.00 0.00 18 1009.1
20240304204225 65 304 17.0 27.0 0.00 0.00 0.00 18 1009.2
20240304203717 65 325 17.0 25.0 0.00 0.00 0.00 19 1009.2
20240304203243 65 332 15.0 24.0 0.00 0.00 0.00 19 1009.2
20240304202749 65 310 17.0 23.0 0.00 0.00 0.00 19 1009.1
20240304202217 64 326 12.0 26.0 0.00 0.00 0.00 19 1009.4
20240304201725 64 332 16.0 26.0 0.00 0.00 0.00 20 1009.5
20240304201230 64 337 14.0 22.0 0.00 0.00 0.00 20 1009.6
20240304200738 63 346 13.0 24.0 0.00 0.00 0.00 21 1009.6
20240304200224 63 335 19.0 31.0 0.00 0.00 0.00 20 1009.7
20240304195731 64 327 20.0 31.0 0.00 0.00 0.00 20 1009.5
20240304195216 63 325 15.0 26.0 0.00 0.00 0.00 22 1009.8
20240304194726 63 335 16.0 28.0 0.00 0.00 0.00 22 1010.0
20240304194230 62 303 11.0 24.0 0.00 0.00 0.00 23 1010.0
20240304193719 62 351 15.0 29.0 0.00 0.00 0.00 24 1010.2
20240304193227 63 351 17.0 29.0 0.00 0.00 0.00 23 1010.2
20240304192733 62 344 14.0 27.0 0.00 0.00 0.00 24 1010.2
20240304192216 62 341 15.0 27.0 0.00 0.00 0.00 24 1010.3
20240304191725 61 317 14.0 24.0 0.00 0.00 0.00 25 1010.5
20240304191249 61 305 18.0 27.0 0.00 0.00 0.00 25 1010.6
20240304190732 61 313 14.0 27.0 0.00 0.00 0.00 26 1010.6
20240304190218 60 326 20.0 29.0 0.00 0.00 0.00 25 1010.8
20240304185725 60 316 17.0 29.0 0.00 0.00 0.00 25 1010.9
20240304185229 60 301 17.0 23.0 0.00 0.00 0.00 26 1010.9
20240304184738 59 326 12.0 20.0 0.00 0.00 0.00 28 1011.1
20240304184224 59 307 15.0 25.0 0.00 0.00 0.00 28 1011.1
20240304183736 59 325 18.0 25.0 0.00 0.00 0.00 28 1011.1
20240304183244 59 311 15.0 25.0 0.00 0.00 0.00 28 1011.3
20240304182725 58 278 12.0 19.0 0.00 0.00 0.00 29 1011.3
20240304182232 58 313 11.0 20.0 0.00 0.00 0.00 29 1011.5
20240304181719 58 300 13.0 25.0 0.00 0.00 0.00 30 1011.6
20240304181225 58 306 15.0 25.0 0.00 0.00 0.00 29 1011.6
20240304180731 58 313 16.0 23.0 0.00 0.00 0.00 29 1011.6
20240304180219 58 342 13.0 22.0 0.00 0.00 0.00 31 1011.7
20240304175725 57 304 16.0 24.0 0.00 0.00 0.00 31 1011.7
20240304175230 57 313 16.0 24.0 0.00 0.00 0.00 31 1011.7
20240304174715 57 321 12.0 17.0 0.00 0.00 0.00 32 1011.7
20240304174222 57 272 11.0 19.0 0.00 0.00 0.00 33 1011.7
20240304173729 57 311 15.0 19.0 0.00 0.00 0.00 35 1011.6
20240304173259 56 327 10.0 17.0 0.00 0.00 0.00 35 1011.8
20240304172719 56 312 10.0 15.0 0.00 0.00 0.00 35 1011.8
20240304172246 56 360 9.0 14.0 0.00 0.00 0.00 36 1011.9
20240304171733 55 46 4.0 12.0 0.00 0.00 0.00 37 1012.0
20240304171217 55 46 4.0 14.0 0.00 0.00 0.00 38 1012.1
20240304170724 54 11 7.0 14.0 0.00 0.00 0.00 39 1012.2
20240304170231 54 14 8.0 15.0 0.00 0.00 0.00 40 1012.3
20240304165736 54 359 6.0 15.0 0.00 0.00 0.00 40 1012.3
20240304165225 54 19 10.0 15.0 0.00 0.00 0.00 40 1012.4
20240304164729 53 29 11.0 15.0 0.00 0.00 0.00 41 1012.4
20240304164219 53 351 8.0 17.0 0.00 0.00 0.00 41 1012.5
20240304163744 53 354 11.0 17.0 0.00 0.00 0.00 41 1012.5
20240304163231 52 336 13.0 16.0 0.00 0.00 0.00 42 1012.4
20240304162717 52 352 10.0 16.0 0.00 0.00 0.00 43 1012.5
20240304162245 52 335 12.0 16.0 0.00 0.00 0.00 43 1012.5
20240304161730 52 331 11.0 18.0 0.00 0.00 0.00 43 1012.5
20240304161257 52 355 13.0 18.0 0.00 0.00 0.00 43 1012.5
20240304160720 51 350 12.0 16.0 0.00 0.00 0.00 44 1012.6
20240304160226 51 320 10.0 15.0 0.00 0.00 0.00 45 1012.6
20240304155732 51 315 7.0 14.0 0.00 0.00 0.00 46 1012.6
20240304155216 50 299 6.0 13.0 0.00 0.00 0.00 47 1012.6
20240304154724 50 323 4.0 13.0 0.00 0.00 0.00 47 1012.7
20240304154251 50 319 7.0 11.0 0.00 0.00 0.00 47 1012.6
20240304153734 50 86 1.0 5.0 0.00 0.00 0.00 49 1012.7
20240304153223 49 61 2.0 8.0 0.00 0.00 0.00 49 1012.7
20240304152732 49 68 4.0 8.0 0.00 0.00 0.00 49 1012.6
20240304152259 49 95 1.0 4.0 0.00 0.00 0.00 50 1012.6
20240304151726 48 17 1.0 11.0 0.00 0.00 0.00 50 1012.5
20240304151215 48 59 2.0 11.0 0.00 0.00 0.00 51 1012.6
20240304150741 47 63 2.0 8.0 0.00 0.00 0.00 53 1012.5
20240304150247 46 74 3.0 8.0 0.00 0.00 0.00 54 1012.5
20240304145735 46 115 2.0 8.0 0.00 0.00 0.00 55 1012.5
20240304145220 45 110 4.0 9.0 0.00 0.00 0.00 56 1012.4
20240304144729 45 117 5.0 9.0 0.00 0.00 0.00 56 1012.4
20240304144217 45 114 5.0 7.0 0.00 0.00 0.00 57 1012.3
20240304143723 44 109 3.0 4.0 0.00 0.00 0.00 59 1012.3
20240304143231 43 119 1.0 5.0 0.00 0.00 0.00 60 1012.1
20240304142736 42 119 2.0 5.0 0.00 0.00 0.00 62 1012.1
20240304142221 41 98 2.0 4.0 0.00 0.00 0.00 63 1012.1
20240304141729 41 114 2.0 4.0 0.00 0.00 0.00 64 1012.0
20240304141216 40 46 1.0 5.0 0.00 0.00 0.00 66 1011.9
20240304140725 39 56 3.0 5.0 0.00 0.00 0.00 66 1012.0
20240304140234 38 51 4.0 5.0 0.00 0.00 0.00 66 1011.9
20240304135719 38 46 4.0 5.0 0.00 0.00 0.00 67 1011.9
20240304135245 37 51 4.0 6.0 0.00 0.00 0.00 67 1011.8
20240304134230 38 51 5.0 6.0 0.00 0.00 0.00 62 1011.7
20240304133719 39 51 4.0 5.0 0.00 0.00 0.00 60 1011.7
20240304133228 40 31 4.0 5.0 0.00 0.00 0.00 60 1011.7
20240304132734 41 29 4.0 6.0 0.00 0.00 0.00 60 1011.7
20240304132221 41 28 5.0 6.0 0.00 0.00 0.00 60 1011.7
20240304131729 42 26 4.0 8.0 0.00 0.00 0.00 59 1011.6
20240304131234 42 20 5.0 8.0 0.00 0.00 0.00 59 1011.6
20240304130800 42 24 5.0 6.0 0.00 0.00 0.00 59 1011.6
20240304130221 42 17 3.0 6.0 0.00 0.00 0.00 58 1011.5
20240304125726 43 26 5.0 6.0 0.00 0.00 0.00 58 1011.4
20240304125233 43 30 5.0 6.0 0.00 0.00 0.00 58 1011.4
20240304124720 43 17 3.0 4.0 0.00 0.00 0.00 59 1011.3
20240304124226 42 51 2.0 3.0 0.00 0.00 0.00 60 1011.2
20240304123731 42 51 2.0 3.0 0.00 0.00 0.00 58 1011.2
20240304123219 42 51 1.0 2.0 0.00 0.00 0.00 59 1011.0
20240304122725 42 51 1.0 3.0 0.00 0.00 0.00 60 1010.9
20240304122230 42 51 2.0 2.0 0.00 0.00 0.00 58 1010.9
20240304121717 42 51 0.0 5.0 0.00 0.00 0.00 59 1010.9
20240304121221 42 57 4.0 6.0 0.00 0.00 0.00 57 1010.9
20240304120731 43 36 4.0 6.0 0.00 0.00 0.00 55 1011.0
20240304120219 45 359 2.0 5.0 0.00 0.00 0.00 55 1010.9
20240304115726 45 359 2.0 7.0 0.00 0.00 0.00 54 1010.8
20240304115232 46 312 2.0 7.0 0.00 0.00 0.00 54 1010.8
20240304114721 46 286 3.0 8.0 0.00 0.00 0.00 54 1010.8
20240304114248 46 305 5.0 9.0 0.00 0.00 0.00 54 1010.7
20240304113733 47 272 5.0 10.0 0.00 0.00 0.00 53 1010.6
20240304113221 47 251 7.0 10.0 0.00 0.00 0.00 53 1010.5
20240304112727 47 242 6.0 10.0 0.00 0.00 0.00 54 1010.5
20240304112233 46 248 7.0 10.0 0.00 0.00 0.00 54 1010.5
20240304111740 46 239 6.0 10.0 0.00 0.00 0.00 54 1010.5
20240304111246 46 243 5.0 9.0 0.00 0.00 0.00 53 1010.4
20240304110731 46 244 6.0 9.0 0.00 0.00 0.00 53 1010.5
20240304110238 47 265 5.0 8.0 0.00 0.00 0.00 52 1010.5
20240304105721 47 254 5.0 9.0 0.00 0.00 0.00 52 1010.4
20240304105226 47 255 6.0 10.0 0.00 0.00 0.00 52 1010.4
20240304104735 47 249 7.0 10.0 0.00 0.00 0.00 52 1010.4
20240304104222 48 244 7.0 10.0 0.00 0.00 0.00 52 1010.4
20240304103727 48 260 6.0 11.0 0.00 0.00 0.00 52 1010.4
20240304103256 48 252 7.0 11.0 0.00 0.00 0.00 51 1010.4
20240304102725 48 257 7.0 10.0 0.00 0.00 0.00 51 1010.4
20240304102251 48 246 6.0 9.0 0.00 0.00 0.00 51 1010.4
20240304101718 48 253 6.0 11.0 0.00 0.00 0.00 50 1010.4
20240304101224 49 253 7.0 15.0 0.00 0.00 0.00 50 1010.4
20240304100730 49 249 10.0 14.0 0.00 0.00 0.00 50 1010.4
20240304100239 49 277 9.0 15.0 0.00 0.00 0.00 50 1010.4
20240304095744 49 262 10.0 15.0 0.00 0.00 0.00 50 1010.4
20240304095229 49 265 10.0 15.0 0.00 0.00 0.00 49 1010.4
20240304094734 49 271 8.0 14.0 0.00 0.00 0.00 49 1010.6
20240304094220 49 261 9.0 15.0 0.00 0.00 0.00 48 1010.5
20240304093726 49 277 10.0 17.0 0.00 0.00 0.00 48 1010.5
20240304093235 49 275 9.0 19.0 0.00 0.00 0.00 47 1010.5
20240304092741 50 247 13.0 19.0 0.00 0.00 0.00 47 1010.4
20240304092226 50 268 11.0 21.0 0.00 0.00 0.00 46 1010.4
20240304091756 50 277 15.0 21.0 0.00 0.00 0.00 45 1010.3
20240304091219 50 287 16.0 23.0 0.00 0.00 0.00 45 1010.1
20240304090725 50 267 13.0 21.0 0.00 0.00 0.00 43 1010.2
20240304090233 50 273 14.0 21.0 0.00 0.00 0.00 43 1010.2
20240304085719 50 258 12.0 20.0 0.00 0.00 0.00 42 1010.3
20240304085226 49 268 14.0 20.0 0.00 0.00 0.00 42 1010.3
20240304084732 49 290 9.0 13.0 0.00 0.00 0.00 41 1010.4
20240304084223 49 289 9.0 13.0 0.00 0.00 0.00 41 1010.4
20240304083730 48 282 9.0 11.0 0.00 0.00 0.00 41 1010.5
20240304083218 48 310 8.0 18.0 0.00 0.00 0.00 40 1010.5
20240304082724 48 303 7.0 18.0 0.00 0.00 0.00 40 1010.5
20240304082229 48 312 7.0 11.0 0.00 0.00 0.00 40 1010.4
20240304081719 48 301 5.0 8.0 0.00 0.00 0.00 40 1010.5
20240304081246 48 289 3.0 10.0 0.00 0.00 0.00 39 1010.5
20240304080730 49 286 5.0 10.0 0.00 0.00 0.00 38 1010.5
20240304080239 49 276 4.0 8.0 0.00 0.00 0.00 38 1010.6
20240304075725 49 273 4.0 8.0 0.00 0.00 0.00 37 1010.5
20240304075232 49 288 5.0 7.0 0.00 0.00 0.00 37 1010.5
20240304074740 49 276 5.0 8.0 0.00 0.00 0.00 38 1010.5
20240304074223 49 257 3.0 6.0 0.00 0.00 0.00 37 1010.6
20240304073729 49 274 3.0 6.0 0.00 0.00 0.00 38 1010.6
20240304073216 49 293 1.0 5.0 0.00 0.00 0.00 38 1010.6
20240304072722 50 293 1.0 5.0 0.00 0.00 0.00 37 1010.6
20240304072228 50 293 3.0 5.0 0.00 0.00 0.00 38 1010.6
20240304071716 50 267 3.0 5.0 0.00 0.00 0.00 38 1010.4
20240304071227 50 259 3.0 5.0 0.00 0.00 0.00 38 1010.4
20240304070733 50 256 3.0 5.0 0.00 0.00 0.00 38 1010.4
20240304070221 50 253 2.0 4.0 0.00 0.00 0.00 38 1010.5
20240304065727 50 251 2.0 3.0 0.00 0.00 0.00 38 1010.6
20240304065232 50 226 1.0 4.0 0.00 0.00 0.00 38 1010.5
20240304064720 50 226 2.0 5.0 0.00 0.00 0.00 37 1010.4
20240304064227 50 245 3.0 9.0 0.00 0.00 0.00 37 1010.2
20240304063754 51 230 4.0 9.0 0.00 0.00 0.00 37 1010.2
20240304063221 51 273 4.0 10.0 0.00 0.00 0.00 36 1010.1
20240304062748 52 296 7.0 14.0 0.00 0.00 0.00 36 1010.0
20240304062233 52 294 9.0 16.0 0.00 0.00 0.00 35 1010.0
20240304061720 53 294 13.0 16.0 0.00 0.00 0.00 35 1009.9
20240304061224 53 299 13.0 16.0 0.00 0.00 0.00 35 1009.9
20240304060732 53 298 12.0 17.0 0.00 0.00 0.00 34 1010.0
20240304060238 54 300 13.0 19.0 0.00 0.00 0.00 33 1010.0
20240304055725 54 296 14.0 19.0 0.00 0.00 0.00 33 1010.1
20240304055229 54 295 14.0 20.0 0.00 0.00 0.00 33 1010.1
20240304054737 54 287 14.0 20.0 0.00 0.00 0.00 33 1010.1
20240304054222 54 296 14.0 20.0 0.00 0.00 0.00 32 1010.1
20240304053729 54 301 14.0 21.0 0.00 0.00 0.00 32 1010.1
20240304053217 54 288 14.0 21.0 0.00 0.00 0.00 32 1010.1
20240304052726 54 296 12.0 17.0 0.00 0.00 0.00 32 1010.1
20240304052232 54 271 12.0 20.0 0.00 0.00 0.00 31 1010.1
20240304051721 54 277 14.0 22.0 0.00 0.00 0.00 31 1010.0
20240304051227 54 288 14.0 22.0 0.00 0.00 0.00 31 1010.0
20240304050733 54 298 13.0 21.0 0.00 0.00 0.00 31 1009.9
20240304050221 54 278 14.0 22.0 0.00 0.00 0.00 31 1009.9
20240304045729 55 275 15.0 22.0 0.00 0.00 0.00 30 1009.8
20240304045255 55 256 18.0 25.0 0.00 0.00 0.00 30 1009.8
20240304044719 55 267 17.0 25.0 0.00 0.00 0.00 30 1009.5
20240304044223 55 261 17.0 27.0 0.00 0.00 0.00 29 1009.7
20240304043729 55 267 21.0 27.0 0.00 0.00 0.00 29 1009.5
20240304043219 55 269 18.0 26.0 0.00 0.00 0.00 29 1009.6
20240304042725 55 284 18.0 27.0 0.00 0.00 0.00 29 1009.6
20240304042232 55 264 19.0 26.0 0.00 0.00 0.00 28 1009.5
20240304041722 55 275 18.0 28.0 0.00 0.00 0.00 28 1009.6
20240304041248 56 264 19.0 28.0 0.00 0.00 0.00 28 1009.5
20240304040754 56 273 18.0 26.0 0.00 0.00 0.00 27 1009.2